Location: Olsztyn
(53.7767°N, 20.4765°E)
Time: 19:53:57
(UTC+02:00)

Envisat - Pass Details

Date: 25 February 2024
Orbit: 762 x 764 km, 98.3° (Epoch: 20 April)

Event Time Altitude Azimuth Distance (km) Brightness Sun altitude
Rises 04:25:56 0° 10° (N) 3,246 6.5 -20.0°
Reaches altitude 10° 04:28:26 10° 1° (N) 2,316 5.6 -19.7°
Maximum altitude 04:32:56 33° 299° (WNW) 1,278 3.7 -19.0°
Enters shadow 04:33:24 32° 288° (WNW) 1,293 3.7 -19.0°
